Vertical_Velocity
1 1 1 -1 1 -1 -1 -1 0 0 0 -0 1 1 0 -0 -0 -1 -0 -0 -2 -2 -2 -1 0 -0 0 0 -0 -2 -1 -0 0
0 1 -1 -0 -0 0 -0 -1 0 -0 1 1 0 -1 0 0 1 -0 -0 -0 -1 0 1 -0 -0 -1 1 1 -2 -0 0 -1 -0
-0 -1 -2 -0 0 -1 -1 -2 -0 0 0 -0 0 -1 -1 -0 1 0 0 -1 -1 -0 1 0 0 -0 -1 2 -1 -1 -2 -1 -1
2 2 1 -0 -1 -1 -2 -1 -0 -1 -0 1 1 1 1 0 -0 -1 -1 0 -0 0 -0 1 -0 1 -2 -2 -0 0 -1 -0 -1
1 1 1 1 -1 -1 -1 0 -0 -1 -0 -2 -1 -1 -1 1 1 -1 0 -2 -1 -1 -2 0 6 -1 1 -0 -1 -0 -0 0 -1
3 -0 -0 -0 2 -0 -0 -0 -0 -0 -0 -1 -1 -3 -1 -2 0 1 2 1 1 -2 -2 -2 -1 1 -1 1 -0 -0 0 0 1
1 1 2 0 0 -1 -0 -2 -1 -1 1 -1 -1 -1 -3 -3 -1 -1 -1 -0 0 1 1 -3 -0 5 1 1 -1 -0 1 -0 2
-0 0 0 2 1 2 1 1 -0 -0 1 1 -1 -1 -0 1 -3 -0 1 1 -1 1 -1 0 -1 1 0 -1 -0 -0 0 -0 -2
2 2 1 2 0 0 -1 -1 -1 -0 0 1 -1 1 -1 0 -0 -2 -2 -1 -1 0 1 2 -1 -2 -0 -1 1 -0 -1 -1 1
0 1 4 -0 2 1 1 0 1 0 1 1 -0 0 1 0 -1 -1 -1 -2 -2 -0 -2 1 -1 -1 1 -1 0 -1 -1 -2 -0
-0 1 3 -2 1 1 0 -1 1 1 -0 1 0 2 0 -1 1 0 -1 -1 1 -0 1 -2 -2 0 -2 -0 -1 1 -1 -0 0
1 1 3 -1 -0 -0 -0 -0 1 0 1 1 2 2 2 0 -0 -1 -0 -2 -2 -2 1 1 -1 -2 -0 -2 -1 -2 -1 -0 -1
-1 2 2 1 1 1 -0 -0 2 0 1 2 2 1 1 0 2 -1 -0 -2 1 -3 2 -1 3 -1 2 -3 -2 -1 -1 -0 -2
-1 2 1 1 1 1 0 0 1 1 1 2 2 2 1 0 1 1 -1 2 3 1 -1 3 1 0 -0 1 -1 -1 -2 0 -1
-0 2 1 1 0 -0 -0 -1 -1 0 1 1 1 2 2 1 0 2 -1 -1 -2 3 -6 1 2 -1 -1 3 -0 2 -1 -2 -1
1 1 0 -0 1 2 1 0 -2 0 2 2 1 0 2 1 1 2 1 -0 -0 -2 1 -7 4 -1 1 -0 -1 0 -0 -2 -1
1 1 0 1 1 0 -0 3 1 1 0 1 1 -1 1 1 0 0 -1 1 2 1 5 -2 -2 3 -1 0 -1 0 2 0 -0
-0 1 1 2 1 1 0 1 2 3 2 3 -3 -3 -1 5 3 -0 1 0 3 2 2 3 0 -1 3 1 -1 2 2 0 -0
0 3 -4 1 -1 0 0 2 3 0 2 -0 2 1 2 -4 0 2 2 -0 -1 1 3 2 3 0 2 3 0 2 3 2 -2
4 -1 5 3 2 1 0 -0 3 2 1 1 2 2 1 -0 2 4 4 2 1 1 -0 5 -0 1 1 2 2 -0 0 -0 1
Height
3170 3171 3173 3173 3174 3174 3175 3175 3175 3175 3177 3178 3179 3181 3182 3184 3185 3185 3185 3185 3185 3185 3185 3186 3186 3186 3186 3187 3187 3186 3186 3185 3185
3170 3172 3172 3173 3174 3174 3175 3175 3176 3177 3177 3178 3180 3181 3183 3184 3186 3186 3186 3186 3186 3186 3187 3187 3188 3188 3188 3188 3188 3188 3188 3188 3187
3169 3171 3172 3173 3174 3175 3176 3176 3177 3178 3178 3179 3181 3181 3183 3185 3186 3187 3188 3188 3188 3187 3188 3189 3189 3189 3190 3191 3191 3190 3190 3190 3189
3169 3170 3171 3172 3173 3174 3175 3176 3177 3177 3178 3179 3181 3182 3183 3185 3186 3187 3188 3188 3189 3189 3189 3189 3191 3191 3191 3192 3192 3191 3191 3191 3191
3169 3170 3171 3172 3173 3174 3176 3177 3178 3179 3180 3180 3180 3181 3182 3184 3186 3187 3189 3189 3190 3190 3190 3190 3191 3191 3192 3193 3193 3193 3193 3192 3192
3168 3169 3171 3172 3173 3174 3176 3177 3179 3180 3181 3181 3181 3181 3182 3184 3186 3187 3188 3189 3191 3191 3191 3190 3190 3192 3193 3194 3194 3194 3194 3194 3194
3166 3167 3169 3170 3171 3173 3174 3176 3178 3179 3180 3181 3182 3183 3184 3184 3186 3187 3189 3190 3191 3191 3193 3192 3192 3193 3194 3195 3195 3196 3196 3196 3195
3164 3167 3168 3169 3171 3172 3173 3175 3176 3178 3179 3180 3182 3183 3185 3186 3187 3187 3189 3190 3191 3192 3193 3195 3194 3193 3196 3195 3196 3197 3196 3196 3196
3162 3164 3166 3167 3169 3170 3172 3174 3176 3177 3179 3181 3182 3183 3184 3185 3187 3188 3189 3190 3190 3192 3192 3194 3195 3194 3195 3195 3195 3196 3196 3195 3195
3160 3162 3164 3165 3166 3168 3171 3173 3175 3177 3178 3180 3182 3183 3184 3186 3187 3188 3189 3189 3190 3191 3192 3193 3195 3193 3194 3195 3194 3195 3195 3194 3194
3157 3159 3161 3162 3164 3166 3169 3171 3173 3175 3177 3179 3181 3183 3184 3185 3186 3187 3188 3188 3189 3190 3192 3192 3194 3193 3194 3195 3194 3194 3195 3195 3194
3154 3156 3158 3159 3160 3163 3167 3169 3171 3173 3175 3178 3180 3182 3183 3184 3185 3186 3187 3187 3188 3189 3190 3192 3193 3192 3192 3194 3195 3194 3193 3194 3195
3150 3153 3154 3156 3157 3160 3163 3166 3169 3171 3173 3175 3177 3179 3180 3182 3183 3184 3185 3186 3188 3188 3189 3190 3191 3191 3191 3194 3193 3194 3193 3193 3193
3147 3149 3150 3153 3155 3156 3160 3163 3166 3168 3170 3172 3174 3176 3178 3179 3181 3182 3183 3185 3186 3187 3187 3189 3190 3191 3189 3191 3193 3193 3193 3192 3192
3143 3145 3147 3149 3151 3153 3156 3160 3162 3164 3166 3169 3171 3173 3174 3176 3178 3180 3181 3183 3184 3185 3186 3187 3189 3191 3190 3189 3190 3190 3190 3191 3190
3138 3141 3143 3145 3147 3150 3153 3156 3158 3160 3163 3165 3167 3169 3171 3173 3174 3176 3178 3179 3181 3183 3185 3186 3186 3188 3189 3189 3188 3189 3188 3188 3187
3133 3136 3139 3141 3143 3145 3149 3152 3154 3157 3159 3161 3163 3165 3168 3169 3171 3173 3174 3176 3178 3180 3180 3184 3184 3184 3185 3186 3187 3186 3186 3186 3185
3128 3131 3134 3136 3138 3141 3144 3148 3151 3153 3155 3157 3159 3160 3163 3166 3168 3169 3171 3173 3175 3176 3177 3179 3181 3181 3181 3182 3183 3183 3181 3181 3181
3123 3126 3129 3131 3133 3136 3139 3142 3146 3148 3150 3152 3154 3157 3160 3160 3164 3165 3167 3169 3170 3172 3173 3174 3176 3176 3177 3178 3179 3179 3177 3178 3177
3116 3119 3123 3126 3129 3132 3134 3136 3140 3143 3145 3148 3150 3152 3155 3157 3159 3161 3164 3165 3166 3167 3168 3170 3171 3171 3172 3174 3174 3174 3172 3173 3172